Voltar ao catálogo

CZ-3A DEB

LostGTO
NORAD 30479·DEBRIS·🇨🇳 China

Lançado Feb 2, 2007 de Xichang Satellite Launch Center

Loading…

TLE

ObsoletoSource: Space-Track

Época: Mar 10, 2007, 19:41 UTC

1 30479U 07003C   07069.82049050  .00003607  00000-0  17470-2 0  9990
2 30479  25.1618 358.3604 7571790 198.8876 102.5854  1.91958663   621

Acompanhe CZ-3A DEB em tempo real com AllMySat

Download on the App Store